| time (UTC) | temp F | wind direction | speed knots | gust knots | rain 1hr in | rain 24hr in | rain mn in | humidity % | barometer mb |
| 20260508132954 | 52 | 274 | 0.0 | 1.7 | 0.00 | 0.00 | 0.00 | 37 | 1006.4 |
| 20260508132452 | 51 | 274 | 0.9 | 2.6 | 0.00 | 0.00 | 0.00 | 40 | 1006.6 |
| 20260508131948 | 51 | 274 | 2.6 | 5.2 | 0.00 | 0.00 | 0.00 | 41 | 1006.5 |
| 20260508131444 | 50 | 274 | 0.0 | 0.9 | 0.00 | 0.00 | 0.00 | 44 | 1006.4 |
| 20260508130941 | 51 | 274 | 1.7 | 2.6 | 0.00 | 0.00 | 0.00 | 41 | 1006.6 |
| 20260508130438 | 49 | 274 | 0.9 | 1.7 | 0.00 | 0.00 | 0.00 | 43 | 1006.7 |
| 20260508125933 | 49 | 274 | 0.0 | 2.6 | 0.00 | 0.00 | 0.00 | 43 | 1006.7 |
| 20260508125430 | 51 | 274 | 2.6 | 5.2 | 0.00 | 0.00 | 0.00 | 43 | 1006.9 |
| 20260508124928 | 48 | 274 | 0.0 | 0.0 | 0.00 | 0.00 | 0.00 | 44 | 1006.6 |
| 20260508124425 | 49 | 274 | 1.7 | 2.6 | 0.00 | 0.00 | 0.00 | 43 | 1006.8 |
| 20260508123923 | 49 | 274 | 0.0 | 0.0 | 0.00 | 0.00 | 0.00 | 45 | 1006.8 |
| 20260508123421 | 50 | 274 | 0.0 | 2.6 | 0.00 | 0.00 | 0.00 | 43 | 1006.7 |
| 20260508122917 | 50 | 274 | 0.0 | 1.7 | 0.00 | 0.00 | 0.00 | 43 | 1006.9 |
| 20260508122414 | 49 | 274 | 0.0 | 0.0 | 0.00 | 0.00 | 0.00 | 47 | 1006.8 |
| 20260508121911 | 48 | 274 | 0.9 | 1.7 | 0.00 | 0.00 | 0.00 | 45 | 1006.8 |
| 20260508121410 | 48 | 274 | 0.9 | 2.6 | 0.00 | 0.00 | 0.00 | 45 | 1006.6 |
| 20260508120907 | 48 | 274 | 0.9 | 2.6 | 0.00 | 0.00 | 0.00 | 46 | 1006.7 |
| 20260508120405 | 49 | 274 | 0.9 | 2.6 | 0.00 | 0.00 | 0.00 | 45 | 1006.7 |
| 20260508115902 | 47 | 274 | 0.9 | 1.7 | 0.00 | 0.00 | 0.00 | 48 | 1006.7 |
| 20260508115400 | 47 | 274 | 0.0 | 0.0 | 0.00 | 0.00 | 0.00 | 51 | 1006.9 |
| 20260508114855 | 46 | 274 | 0.0 | 0.0 | 0.00 | 0.00 | 0.00 | 54 | 1006.6 |
| 20260508114353 | 46 | 274 | 0.0 | 0.9 | 0.00 | 0.00 | 0.00 | 59 | 1006.7 |
| 20260508113849 | 44 | 274 | 0.0 | 0.0 | 0.00 | 0.00 | 0.00 | 61 | 1006.7 |
| 20260508113348 | 44 | 274 | 0.9 | 0.9 | 0.00 | 0.00 | 0.00 | 66 | 1006.7 |
| 20260508112844 | 43 | 274 | 0.0 | 0.0 | 0.00 | 0.00 | 0.00 | 70 | 1006.5 |
| 20260508112341 | 42 | 274 | 0.0 | 0.0 | 0.00 | 0.00 | 0.00 | 72 | 1006.6 |
| 20260508111837 | 40 | 274 | 0.0 | 0.0 | 0.00 | 0.00 | 0.00 | 75 | 1006.5 |
| 20260508111335 | 40 | 274 | 0.0 | 0.0 | 0.00 | 0.00 | 0.00 | 77 | 1006.6 |
| 20260508110832 | 39 | 274 | 0.0 | 0.0 | 0.00 | 0.00 | 0.00 | 77 | 1006.5 |
| 20260508110329 | 39 | 274 | 0.0 | 0.0 | 0.00 | 0.00 | 0.00 | 78 | 1006.6 |
| 20260508105829 | 37 | 274 | 0.0 | 0.0 | 0.00 | 0.00 | 0.00 | 83 | 1006.4 |
| 20260508105326 | 36 | 274 | 0.0 | 0.0 | 0.00 | 0.00 | 0.00 | 87 | 1006.4 |
| 20260508104823 | 35 | 274 | 0.0 | 0.0 | 0.00 | 0.00 | 0.00 | 88 | 1006.5 |
| 20260508104320 | 35 | 274 | 0.0 | 0.0 | 0.00 | 0.00 | 0.00 | 89 | 1006.5 |
| 20260508103817 | 34 | 274 | 0.0 | 0.0 | 0.00 | 0.00 | 0.00 | 90 | 1006.6 |
| 20260508103314 | 33 | 274 | 0.0 | 0.0 | 0.00 | 0.00 | 0.00 | 91 | 1006.3 |
| 20260508102812 | 33 | 274 | 0.0 | 0.0 | 0.00 | 0.00 | 0.00 | 91 | 1006.2 |
| 20260508102309 | 32 | 274 | 0.0 | 0.0 | 0.00 | 0.00 | 0.00 | 91 | 1006.2 |
| 20260508101806 | 32 | 274 | 0.0 | 0.0 | 0.00 | 0.00 | 0.00 | 91 | 1006.3 |
| 20260508101304 | 32 | 274 | 0.0 | 0.9 | 0.00 | 0.00 | 0.00 | 91 | 1006.2 |
| 20260508100801 | 31 | 274 | 0.0 | 0.0 | 0.00 | 0.00 | 0.00 | 91 | 1006.0 |
| 20260508100300 | 31 | 274 | 0.0 | 0.9 | 0.00 | 0.00 | 0.00 | 91 | 1006.1 |
| 20260508095755 | 31 | 274 | 0.0 | 0.0 | 0.00 | 0.00 | 0.00 | 91 | 1006.1 |
| 20260508095253 | 30 | 274 | 0.0 | 0.0 | 0.00 | 0.00 | 0.00 | 91 | 1006.1 |
| 20260508094749 | 30 | 274 | 0.0 | 0.0 | 0.00 | 0.00 | 0.00 | 91 | 1005.8 |
| 20260508094247 | 30 | 274 | 0.0 | 0.0 | 0.00 | 0.00 | 0.00 | 91 | 1005.8 |
| 20260508093743 | 30 | 274 | 0.0 | 0.9 | 0.00 | 0.00 | 0.00 | 91 | 1005.9 |
| 20260508093241 | 30 | 274 | 0.0 | 0.0 | 0.00 | 0.00 | 0.00 | 90 | 1005.7 |
| 20260508092738 | 30 | 274 | 0.0 | 0.0 | 0.00 | 0.00 | 0.00 | 90 | 1005.8 |
| 20260508092236 | 30 | 274 | 0.0 | 0.9 | 0.00 | 0.00 | 0.00 | 90 | 1005.7 |
| 20260508091734 | 30 | 274 | 0.0 | 0.9 | 0.00 | 0.00 | 0.00 | 90 | 1005.6 |
| 20260508091230 | 30 | 274 | 0.0 | 0.0 | 0.00 | 0.00 | 0.00 | 90 | 1005.5 |
| 20260508090728 | 30 | 274 | 0.0 | 0.0 | 0.00 | 0.00 | 0.00 | 90 | 1005.2 |
| 20260508090226 | 30 | 274 | 0.0 | 0.0 | 0.00 | 0.00 | 0.00 | 90 | 1005.3 |
| 20260508085721 | 31 | 274 | 0.0 | 0.0 | 0.00 | 0.00 | 0.00 | 90 | 1005.4 |
| 20260508085219 | 31 | 274 | 0.0 | 0.0 | 0.00 | 0.00 | 0.00 | 90 | 1005.2 |
| 20260508084715 | 31 | 274 | 0.0 | 0.0 | 0.00 | 0.00 | 0.00 | 89 | 1005.1 |
| 20260508084213 | 31 | 274 | 0.0 | 0.0 | 0.00 | 0.00 | 0.00 | 89 | 1005.1 |
| 20260508083710 | 31 | 274 | 0.0 | 0.0 | 0.00 | 0.00 | 0.00 | 89 | 1005.3 |
| 20260508083207 | 31 | 274 | 0.0 | 0.0 | 0.00 | 0.00 | 0.00 | 88 | 1005.0 |
| 20260508082702 | 31 | 274 | 0.0 | 0.0 | 0.00 | 0.00 | 0.00 | 88 | 1005.1 |
| 20260508082200 | 31 | 274 | 0.0 | 0.0 | 0.00 | 0.00 | 0.00 | 87 | 1005.2 |
| 20260508081657 | 31 | 274 | 0.0 | 0.0 | 0.00 | 0.00 | 0.00 | 88 | 1005.2 |
| 20260508081153 | 31 | 274 | 0.0 | 0.0 | 0.00 | 0.00 | 0.00 | 88 | 1005.2 |
| 20260508080651 | 31 | 274 | 0.0 | 0.0 | 0.00 | 0.00 | 0.00 | 88 | 1005.1 |
| 20260508080149 | 31 | 274 | 0.0 | 0.0 | 0.00 | 0.00 | 0.00 | 88 | 1005.3 |
| 20260508075645 | 31 | 274 | 0.0 | 0.0 | 0.00 | 0.00 | 0.00 | 88 | 1005.0 |
| 20260508075142 | 32 | 274 | 0.0 | 0.0 | 0.00 | 0.00 | 0.00 | 87 | 1005.0 |
| 20260508074640 | 32 | 274 | 0.0 | 0.0 | 0.00 | 0.00 | 0.00 | 87 | 1004.9 |
| 20260508074137 | 32 | 274 | 0.0 | 0.0 | 0.00 | 0.00 | 0.00 | 86 | 1005.1 |
| 20260508073634 | 32 | 274 | 0.0 | 0.0 | 0.00 | 0.00 | 0.00 | 86 | 1005.0 |
| 20260508073132 | 32 | 274 | 0.0 | 0.0 | 0.00 | 0.00 | 0.00 | 86 | 1005.1 |
| 20260508072627 | 32 | 274 | 0.0 | 0.0 | 0.00 | 0.00 | 0.00 | 86 | 1004.8 |
| 20260508072124 | 32 | 274 | 0.0 | 0.0 | 0.00 | 0.00 | 0.00 | 85 | 1004.9 |
| 20260508071622 | 32 | 274 | 0.0 | 0.0 | 0.00 | 0.00 | 0.00 | 85 | 1005.0 |
| 20260508071120 | 32 | 274 | 0.0 | 0.0 | 0.00 | 0.00 | 0.00 | 85 | 1005.0 |
| 20260508070617 | 32 | 274 | 0.0 | 0.0 | 0.00 | 0.00 | 0.00 | 84 | 1005.1 |
| 20260508070115 | 32 | 274 | 0.0 | 0.0 | 0.00 | 0.00 | 0.00 | 84 | 1005.1 |
| 20260508065607 | 33 | 274 | 0.0 | 0.0 | 0.00 | 0.00 | 0.00 | 84 | 1005.0 |
| 20260508065104 | 33 | 274 | 0.0 | 0.0 | 0.00 | 0.00 | 0.00 | 83 | 1004.9 |
| 20260508064602 | 33 | 274 | 0.0 | 0.0 | 0.00 | 0.00 | 0.00 | 83 | 1005.2 |
| 20260508064100 | 33 | 274 | 0.0 | 0.0 | 0.00 | 0.00 | 0.00 | 82 | 1005.1 |
| 20260508063557 | 33 | 274 | 0.0 | 0.0 | 0.00 | 0.00 | 0.00 | 81 | 1005.1 |
| 20260508063055 | 33 | 274 | 0.0 | 0.0 | 0.00 | 0.00 | 0.00 | 82 | 1005.0 |
| 20260508062552 | 34 | 274 | 0.0 | 0.0 | 0.00 | 0.00 | 0.00 | 82 | 1005.2 |
| 20260508062048 | 34 | 274 | 0.0 | 0.0 | 0.00 | 0.00 | 0.00 | 83 | 1005.3 |
| 20260508061546 | 34 | 274 | 0.0 | 0.0 | 0.00 | 0.00 | 0.00 | 82 | 1005.4 |
| 20260508061043 | 34 | 274 | 0.0 | 0.0 | 0.00 | 0.00 | 0.00 | 82 | 1005.3 |
| 20260508060540 | 34 | 274 | 0.0 | 0.0 | 0.00 | 0.00 | 0.00 | 81 | 1005.3 |
| 20260508060037 | 34 | 274 | 0.0 | 0.0 | 0.00 | 0.00 | 0.00 | 82 | 1005.5 |
| 20260508055532 | 34 | 274 | 0.0 | 0.0 | 0.00 | 0.00 | 0.00 | 81 | 1005.5 |
| 20260508055030 | 34 | 274 | 0.0 | 0.0 | 0.00 | 0.00 | 0.00 | 82 | 1005.2 |
| 20260508054526 | 34 | 274 | 0.0 | 0.0 | 0.00 | 0.00 | 0.00 | 82 | 1005.4 |
| 20260508054024 | 34 | 274 | 0.0 | 0.0 | 0.00 | 0.00 | 0.00 | 82 | 1005.5 |
| 20260508053520 | 34 | 274 | 0.0 | 0.0 | 0.00 | 0.00 | 0.00 | 81 | 1005.6 |
| 20260508053019 | 34 | 274 | 0.0 | 0.0 | 0.00 | 0.00 | 0.00 | 81 | 1005.6 |
| 20260508052516 | 35 | 274 | 0.0 | 0.0 | 0.00 | 0.00 | 0.00 | 81 | 1005.7 |
| 20260508052012 | 34 | 274 | 0.0 | 0.0 | 0.00 | 0.00 | 0.00 | 81 | 1005.9 |
| 20260508051509 | 34 | 274 | 0.0 | 0.0 | 0.00 | 0.00 | 0.00 | 82 | 1005.8 |
| 20260508051004 | 35 | 274 | 0.0 | 0.0 | 0.00 | 0.00 | 0.00 | 82 | 1005.8 |
| 20260508050501 | 35 | 274 | 0.0 | 0.0 | 0.00 | 0.00 | 0.00 | 82 | 1005.9 |
| 20260508045957 | 35 | 274 | 0.0 | 0.0 | 0.00 | 0.00 | 0.00 | 82 | 1005.9 |
| 20260508045454 | 35 | 274 | 0.0 | 0.0 | 0.00 | 0.00 | 0.00 | 81 | 1005.5 |
| 20260508044952 | 35 | 274 | 0.0 | 0.0 | 0.00 | 0.00 | 0.00 | 81 | 1005.9 |
| 20260508044449 | 35 | 274 | 0.0 | 0.0 | 0.00 | 0.00 | 0.00 | 81 | 1005.9 |
| 20260508043944 | 36 | 274 | 0.0 | 0.0 | 0.00 | 0.00 | 0.00 | 81 | 1005.8 |
| 20260508043442 | 36 | 274 | 0.0 | 0.0 | 0.00 | 0.00 | 0.00 | 80 | 1005.8 |
| 20260508042937 | 37 | 274 | 0.0 | 0.0 | 0.00 | 0.00 | 0.00 | 80 | 1005.9 |
| 20260508042436 | 37 | 274 | 0.0 | 0.0 | 0.00 | 0.00 | 0.00 | 78 | 1005.8 |
| 20260508041932 | 37 | 274 | 0.0 | 0.0 | 0.00 | 0.00 | 0.00 | 76 | 1006.3 |
| 20260508041429 | 37 | 274 | 0.0 | 0.0 | 0.00 | 0.00 | 0.00 | 77 | 1006.1 |
| 20260508040926 | 37 | 274 | 0.0 | 0.0 | 0.00 | 0.00 | 0.00 | 77 | 1006.0 |
| 20260508040423 | 37 | 274 | 0.0 | 0.0 | 0.00 | 0.00 | 0.00 | 78 | 1006.2 |
| 20260508035920 | 37 | 274 | 0.0 | 0.0 | 0.00 | 0.01 | 0.01 | 77 | 1006.1 |
| 20260508035411 | 38 | 274 | 0.0 | 0.0 | 0.00 | 0.01 | 0.01 | 76 | 1006.1 |
| 20260508034908 | 39 | 274 | 0.0 | 0.0 | 0.00 | 0.01 | 0.01 | 75 | 1006.1 |
| 20260508034406 | 39 | 274 | 0.0 | 0.0 | 0.00 | 0.01 | 0.01 | 75 | 1006.0 |
| 20260508033902 | 39 | 274 | 0.0 | 0.0 | 0.00 | 0.01 | 0.01 | 75 | 1006.0 |
| 20260508033401 | 39 | 274 | 0.0 | 0.0 | 0.00 | 0.01 | 0.01 | 74 | 1006.0 |
| 20260508032858 | 39 | 274 | 0.0 | 0.0 | 0.00 | 0.01 | 0.01 | 74 | 1005.8 |
| 20260508032355 | 39 | 274 | 0.0 | 0.0 | 0.00 | 0.01 | 0.01 | 75 | 1006.0 |
| 20260508031852 | 39 | 274 | 0.0 | 0.0 | 0.00 | 0.01 | 0.01 | 74 | 1006.1 |
| 20260508031349 | 39 | 274 | 0.0 | 0.0 | 0.00 | 0.01 | 0.01 | 73 | 1005.8 |
| 20260508030844 | 39 | 274 | 0.0 | 0.0 | 0.00 | 0.01 | 0.01 | 74 | 1006.0 |
| 20260508030342 | 39 | 274 | 0.0 | 0.0 | 0.00 | 0.01 | 0.01 | 74 | 1006.1 |
| 20260508025838 | 40 | 274 | 0.0 | 0.0 | 0.00 | 0.01 | 0.01 | 73 | 1005.9 |
| 20260508025336 | 40 | 274 | 0.0 | 0.0 | 0.00 | 0.01 | 0.01 | 72 | 1005.9 |
| 20260508024832 | 40 | 274 | 0.0 | 0.0 | 0.00 | 0.01 | 0.01 | 71 | 1005.8 |
| 20260508024328 | 40 | 274 | 0.0 | 0.0 | 0.00 | 0.01 | 0.01 | 70 | 1005.8 |
| 20260508023825 | 41 | 274 | 0.0 | 0.0 | 0.00 | 0.01 | 0.01 | 69 | 1005.8 |
| 20260508023317 | 41 | 274 | 0.0 | 0.0 | 0.00 | 0.01 | 0.01 | 68 | 1005.7 |
| 20260508022813 | 41 | 274 | 0.0 | 0.0 | 0.00 | 0.01 | 0.01 | 68 | 1005.8 |
| 20260508022309 | 41 | 274 | 0.0 | 0.0 | 0.00 | 0.01 | 0.01 | 67 | 1005.7 |
| 20260508021807 | 41 | 274 | 0.0 | 0.0 | 0.00 | 0.01 | 0.01 | 66 | 1005.4 |
| 20260508021302 | 42 | 274 | 0.0 | 0.0 | 0.00 | 0.01 | 0.01 | 67 | 1005.2 |
| 20260508020758 | 42 | 274 | 0.0 | 0.0 | 0.00 | 0.01 | 0.01 | 67 | 1005.7 |
| 20260508020257 | 42 | 274 | 0.0 | 0.0 | 0.00 | 0.01 | 0.01 | 67 | 1005.5 |
| 20260508015753 | 42 | 274 | 0.0 | 0.0 | 0.00 | 0.01 | 0.01 | 67 | 1005.5 |
| 20260508015251 | 42 | 274 | 0.0 | 0.0 | 0.00 | 0.01 | 0.01 | 66 | 1005.5 |
| 20260508014747 | 42 | 274 | 0.0 | 0.0 | 0.00 | 0.01 | 0.01 | 66 | 1005.4 |
| 20260508014244 | 42 | 274 | 0.0 | 0.0 | 0.00 | 0.01 | 0.01 | 66 | 1005.4 |
| 20260508013740 | 42 | 274 | 0.0 | 0.0 | 0.00 | 0.01 | 0.01 | 66 | 1005.3 |
| 20260508013237 | 42 | 274 | 0.0 | 0.0 | 0.00 | 0.01 | 0.01 | 65 | 1005.1 |
| 20260508012734 | 42 | 274 | 0.0 | 0.0 | 0.00 | 0.01 | 0.01 | 66 | 1005.3 |
| 20260508012231 | 42 | 274 | 0.0 | 0.0 | 0.00 | 0.01 | 0.01 | 65 | 1005.5 |
| 20260508011729 | 42 | 274 | 0.0 | 0.0 | 0.00 | 0.01 | 0.01 | 65 | 1005.2 |
| 20260508011226 | 42 | 274 | 0.0 | 0.0 | 0.00 | 0.01 | 0.01 | 67 | 1005.0 |
| 20260508010722 | 43 | 274 | 0.0 | 0.0 | 0.00 | 0.01 | 0.01 | 63 | 1005.0 |
| 20260508010221 | 43 | 274 | 0.0 | 0.0 | 0.00 | 0.01 | 0.01 | 62 | 1005.0 |
| 20260508005718 | 43 | 274 | 0.0 | 0.0 | 0.00 | 0.01 | 0.01 | 62 | 1004.7 |
| 20260508005215 | 43 | 274 | 0.0 | 0.0 | 0.00 | 0.01 | 0.01 | 61 | 1004.7 |
| 20260508004710 | 44 | 274 | 0.0 | 0.0 | 0.00 | 0.01 | 0.01 | 61 | 1004.9 |
| 20260508004207 | 44 | 274 | 0.0 | 0.0 | 0.00 | 0.01 | 0.01 | 60 | 1004.6 |
| 20260508003703 | 45 | 274 | 0.0 | 0.0 | 0.00 | 0.01 | 0.01 | 58 | 1004.3 |
| 20260508003201 | 45 | 274 | 0.0 | 0.0 | 0.00 | 0.01 | 0.01 | 57 | 1004.4 |
| 20260508002657 | 45 | 274 | 0.0 | 0.0 | 0.00 | 0.01 | 0.01 | 57 | 1004.5 |
| 20260508002155 | 46 | 274 | 0.0 | 0.0 | 0.00 | 0.01 | 0.01 | 56 | 1004.1 |
| 20260508001650 | 46 | 274 | 0.0 | 0.0 | 0.00 | 0.01 | 0.01 | 53 | 1004.1 |
| 20260508001146 | 47 | 274 | 0.0 | 0.0 | 0.00 | 0.01 | 0.01 | 51 | 1003.8 |
| 20260508000642 | 48 | 274 | 0.0 | 0.0 | 0.00 | 0.01 | 0.01 | 52 | 1004.0 |
| 20260508000139 | 48 | 274 | 0.0 | 0.0 | 0.00 | 0.01 | 0.01 | 48 | 1003.8 |
| 20260507235636 | 48 | 274 | 0.0 | 0.0 | 0.00 | 0.01 | 0.01 | 51 | 1004.1 |
| 20260507235134 | 49 | 274 | 0.0 | 0.0 | 0.00 | 0.01 | 0.01 | 48 | 1003.7 |
| 20260507234630 | 50 | 274 | 0.0 | 0.0 | 0.00 | 0.01 | 0.01 | 48 | 1003.8 |
| 20260507234127 | 52 | 274 | 0.0 | 0.0 | 0.00 | 0.01 | 0.01 | 42 | 1003.8 |
| 20260507233623 | 53 | 274 | 0.0 | 0.0 | 0.00 | 0.01 | 0.01 | 39 | 1003.7 |
| 20260507233122 | 53 | 274 | 0.0 | 0.9 | 0.00 | 0.01 | 0.01 | 39 | 1003.7 |
| 20260507232618 | 53 | 274 | 0.9 | 1.7 | 0.00 | 0.01 | 0.01 | 38 | 1003.6 |
| 20260507232116 | 54 | 274 | 0.0 | 1.7 | 0.00 | 0.01 | 0.01 | 39 | 1003.5 |
| 20260507231612 | 54 | 274 | 1.7 | 2.6 | 0.00 | 0.01 | 0.01 | 40 | 1003.4 |
| 20260507231109 | 54 | 274 | 0.0 | 1.7 | 0.00 | 0.01 | 0.01 | 39 | 1003.4 |
| 20260507230605 | 55 | 274 | 0.0 | 0.0 | 0.00 | 0.01 | 0.01 | 40 | 1003.1 |
| 20260507225557 | 55 | 274 | 0.0 | 0.9 | 0.00 | 0.01 | 0.01 | 37 | 1002.9 |
| 20260507225054 | 56 | 274 | 0.0 | 1.7 | 0.00 | 0.01 | 0.01 | 34 | 1003.1 |
| 20260507224549 | 56 | 274 | 0.9 | 3.5 | 0.00 | 0.01 | 0.01 | 30 | 1003.0 |
| 20260507224046 | 56 | 274 | 0.0 | 0.0 | 0.00 | 0.01 | 0.01 | 35 | 1003.0 |
| 20260507223542 | 57 | 274 | 0.9 | 0.9 | 0.00 | 0.01 | 0.01 | 32 | 1003.0 |
| 20260507223040 | 57 | 274 | 1.7 | 3.5 | 0.00 | 0.01 | 0.01 | 29 | 1002.6 |
| 20260507222537 | 57 | 274 | 0.0 | 1.7 | 0.00 | 0.01 | 0.01 | 30 | 1002.5 |
| 20260507222033 | 57 | 274 | 0.0 | 0.9 | 0.00 | 0.01 | 0.01 | 30 | 1002.8 |
| 20260507221529 | 57 | 274 | 0.9 | 2.6 | 0.00 | 0.01 | 0.01 | 34 | 1002.6 |
| 20260507221026 | 57 | 274 | 0.0 | 3.5 | 0.00 | 0.01 | 0.01 | 31 | 1002.8 |
| 20260507220524 | 57 | 274 | 0.0 | 0.0 | 0.00 | 0.01 | 0.01 | 33 | 1002.5 |
| 20260507220021 | 57 | 274 | 0.0 | 0.9 | 0.00 | 0.01 | 0.01 | 34 | 1002.6 |
| 20260507215517 | 57 | 274 | 0.9 | 3.5 | 0.00 | 0.01 | 0.01 | 30 | 1002.7 |
| 20260507215015 | 57 | 274 | 0.0 | 0.0 | 0.00 | 0.01 | 0.01 | 34 | 1002.5 |
| 20260507214512 | 58 | 274 | 0.9 | 1.7 | 0.00 | 0.01 | 0.01 | 29 | 1002.5 |
| 20260507214008 | 58 | 274 | 0.9 | 1.7 | 0.00 | 0.01 | 0.01 | 30 | 1002.6 |
| 20260507213504 | 59 | 274 | 0.9 | 2.6 | 0.00 | 0.01 | 0.01 | 30 | 1002.5 |
| 20260507213001 | 59 | 274 | 0.0 | 2.6 | 0.00 | 0.01 | 0.01 | 30 | 1002.6 |
| 20260507212457 | 59 | 274 | 0.0 | 3.5 | 0.00 | 0.01 | 0.01 | 28 | 1002.4 |
| 20260507211954 | 59 | 274 | 0.0 | 0.0 | 0.00 | 0.01 | 0.01 | 32 | 1002.6 |
| 20260507211450 | 59 | 274 | 1.7 | 1.7 | 0.00 | 0.01 | 0.01 | 27 | 1002.5 |
| 20260507210947 | 59 | 274 | 0.0 | 0.9 | 0.00 | 0.01 | 0.01 | 27 | 1002.5 |
| 20260507210444 | 59 | 274 | 0.9 | 3.5 | 0.00 | 0.01 | 0.01 | 30 | 1002.7 |
| 20260507205941 | 61 | 274 | 0.0 | 0.9 | 0.00 | 0.01 | 0.01 | 27 | 1002.5 |
| 20260507205438 | 60 | 274 | 0.0 | 2.6 | 0.00 | 0.01 | 0.01 | 29 | 1002.2 |
| 20260507204934 | 57 | 274 | 0.0 | 0.0 | 0.00 | 0.01 | 0.01 | 29 | 1002.4 |
| 20260507204431 | 58 | 274 | 0.0 | 0.0 | 0.00 | 0.01 | 0.01 | 29 | 1002.3 |
| 20260507203928 | 60 | 274 | 1.7 | 2.6 | 0.00 | 0.01 | 0.01 | 28 | 1002.4 |
| 20260507203426 | 59 | 274 | 0.9 | 5.2 | 0.00 | 0.01 | 0.01 | 27 | 1002.4 |
| 20260507202922 | 61 | 274 | 0.9 | 1.7 | 0.00 | 0.01 | 0.01 | 31 | 1002.2 |
| 20260507202419 | 61 | 274 | 0.0 | 2.6 | 0.00 | 0.01 | 0.01 | 26 | 1002.3 |
| 20260507201914 | 60 | 274 | 0.0 | 3.5 | 0.00 | 0.01 | 0.01 | 26 | 1002.2 |
| 20260507201410 | 60 | 274 | 0.0 | 5.2 | 0.00 | 0.01 | 0.01 | 27 | 1002.4 |
| 20260507200907 | 60 | 274 | 0.0 | 3.5 | 0.00 | 0.01 | 0.01 | 28 | 1002.1 |
| 20260507200403 | 60 | 274 | 1.7 | 2.6 | 0.00 | 0.01 | 0.01 | 27 | 1002.2 |
| 20260507195859 | 60 | 274 | 0.0 | 0.9 | 0.00 | 0.01 | 0.01 | 31 | 1002.3 |
| 20260507195356 | 59 | 274 | 0.0 | 0.9 | 0.00 | 0.01 | 0.01 | 29 | 1002.2 |
| 20260507194853 | 60 | 274 | 0.9 | 5.2 | 0.00 | 0.01 | 0.01 | 28 | 1002.2 |
| 20260507194350 | 58 | 274 | 0.9 | 1.7 | 0.00 | 0.01 | 0.01 | 32 | 1002.5 |
| 20260507193846 | 57 | 274 | 0.0 | 0.0 | 0.00 | 0.01 | 0.01 | 36 | 1002.6 |
| 20260507193344 | 58 | 274 | 0.9 | 5.2 | 0.00 | 0.01 | 0.01 | 31 | 1002.6 |
| 20260507192839 | 59 | 274 | 0.0 | 3.5 | 0.00 | 0.01 | 0.01 | 31 | 1002.5 |
| 20260507192336 | 59 | 274 | 0.9 | 5.2 | 0.00 | 0.01 | 0.01 | 30 | 1002.4 |
| 20260507191832 | 60 | 274 | 0.9 | 1.7 | 0.00 | 0.01 | 0.01 | 31 | 1002.6 |
| 20260507191329 | 60 | 274 | 0.0 | 1.7 | 0.00 | 0.01 | 0.01 | 30 | 1002.8 |
| 20260507190826 | 61 | 174 | 1.7 | 6.1 | 0.00 | 0.01 | 0.01 | 28 | 1003.0 |
| 20260507190324 | 61 | 174 | 1.7 | 7.0 | 0.00 | 0.01 | 0.01 | 29 | 1002.6 |
| 20260507185823 | 60 | 174 | 0.9 | 5.2 | 0.00 | 0.01 | 0.01 | 28 | 1002.7 |
| 20260507185319 | 60 | 174 | 0.0 | 2.6 | 0.00 | 0.01 | 0.01 | 29 | 1002.6 |
| 20260507184816 | 58 | 174 | 1.7 | 2.6 | 0.00 | 0.01 | 0.01 | 34 | 1002.6 |
| 20260507184314 | 59 | 174 | 1.7 | 1.7 | 0.00 | 0.01 | 0.01 | 33 | 1002.7 |
| 20260507183811 | 56 | 174 | 0.0 | 1.7 | 0.00 | 0.01 | 0.01 | 35 | 1002.7 |
| 20260507183308 | 58 | 174 | 0.9 | 2.6 | 0.00 | 0.01 | 0.01 | 34 | 1002.7 |
| 20260507182805 | 59 | 174 | 1.7 | 2.6 | 0.00 | 0.01 | 0.01 | 36 | 1002.5 |
| 20260507182300 | 59 | 174 | 0.0 | 0.9 | 0.00 | 0.01 | 0.01 | 37 | 1002.7 |
| 20260507181757 | 59 | 174 | 0.9 | 5.2 | 0.00 | 0.01 | 0.01 | 32 | 1002.9 |
| 20260507181253 | 60 | 174 | 1.7 | 3.5 | 0.00 | 0.01 | 0.01 | 32 | 1002.8 |
| 20260507180750 | 60 | 174 | 0.9 | 2.6 | 0.00 | 0.01 | 0.01 | 35 | 1002.7 |
| 20260507180247 | 58 | 174 | 0.9 | 3.5 | 0.00 | 0.01 | 0.01 | 41 | 1003.1 |
| 20260507175742 | 58 | 174 | 0.0 | 1.7 | 0.00 | 0.01 | 0.01 | 39 | 1003.2 |
| 20260507175240 | 60 | 174 | 0.9 | 3.5 | 0.00 | 0.01 | 0.01 | 39 | 1003.0 |
| 20260507174737 | 59 | 174 | 3.5 | 5.2 | 0.00 | 0.01 | 0.01 | 38 | 1002.8 |
| 20260507174235 | 58 | 174 | 2.6 | 3.5 | 0.00 | 0.01 | 0.01 | 34 | 1003.0 |
| 20260507173733 | 59 | 174 | 5.2 | 7.8 | 0.00 | 0.01 | 0.01 | 35 | 1003.1 |
| 20260507173229 | 60 | 174 | 2.6 | 5.2 | 0.00 | 0.01 | 0.01 | 34 | 1003.1 |
| 20260507172725 | 59 | 174 | 0.0 | 3.5 | 0.00 | 0.01 | 0.01 | 34 | 1003.1 |
| 20260507172222 | 58 | 174 | 0.0 | 3.5 | 0.00 | 0.01 | 0.01 | 43 | 1003.2 |
| 20260507171717 | 58 | 174 | 0.0 | 5.2 | 0.00 | 0.01 | 0.01 | 46 | 1003.1 |
| 20260507171215 | 58 | 174 | 0.9 | 3.5 | 0.00 | 0.01 | 0.01 | 47 | 1003.2 |
| 20260507170711 | 62 | 174 | 0.9 | 7.0 | 0.00 | 0.01 | 0.01 | 42 | 1003.3 |
| 20260507170208 | 62 | 174 | 2.6 | 3.5 | 0.00 | 0.01 | 0.01 | 38 | 1003.0 |
| 20260507165703 | 59 | 174 | 0.9 | 1.7 | 0.00 | 0.01 | 0.01 | 39 | 1003.2 |
| 20260507165159 | 58 | 174 | 1.7 | 3.5 | 0.00 | 0.01 | 0.01 | 43 | 1003.3 |
| 20260507164655 | 57 | 174 | 0.9 | 3.5 | 0.00 | 0.01 | 0.01 | 43 | 1003.3 |
| 20260507164148 | 60 | 174 | 0.0 | 3.5 | 0.00 | 0.01 | 0.01 | 44 | 1003.3 |
| 20260507163644 | 59 | 174 | 1.7 | 3.5 | 0.00 | 0.01 | 0.01 | 40 | 1003.4 |
| 20260507163143 | 59 | 174 | 0.9 | 2.6 | 0.00 | 0.01 | 0.01 | 41 | 1003.3 |
| 20260507162638 | 59 | 174 | 0.0 | 6.1 | 0.00 | 0.01 | 0.01 | 43 | 1003.3 |
| 20260507162135 | 59 | 174 | 0.0 | 0.9 | 0.00 | 0.01 | 0.01 | 41 | 1003.2 |
| 20260507161631 | 57 | 174 | 0.0 | 1.7 | 0.00 | 0.01 | 0.01 | 45 | 1003.4 |
| 20260507161127 | 57 | 174 | 3.5 | 3.5 | 0.00 | 0.01 | 0.01 | 44 | 1003.6 |
| 20260507160624 | 57 | 174 | 0.0 | 1.7 | 0.00 | 0.01 | 0.01 | 51 | 1003.8 |
| 20260507160121 | 57 | 174 | 0.9 | 2.6 | 0.00 | 0.01 | 0.01 | 49 | 1003.7 |
| 20260507155616 | 58 | 174 | 1.7 | 2.6 | 0.00 | 0.01 | 0.01 | 49 | 1003.6 |
| 20260507155113 | 59 | 174 | 0.0 | 3.5 | 0.00 | 0.01 | 0.01 | 49 | 1003.7 |
| 20260507154610 | 58 | 174 | 0.9 | 5.2 | 0.00 | 0.01 | 0.01 | 45 | 1003.8 |
| 20260507154107 | 56 | 174 | 1.7 | 2.6 | 0.00 | 0.01 | 0.01 | 48 | 1003.9 |
| 20260507153603 | 54 | 174 | 0.0 | 0.9 | 0.00 | 0.01 | 0.01 | 56 | 1003.9 |
| 20260507153100 | 57 | 174 | 0.9 | 1.7 | 0.00 | 0.01 | 0.01 | 49 | 1004.0 |
| 20260507152556 | 60 | 174 | 0.0 | 3.5 | 0.00 | 0.01 | 0.01 | 48 | 1003.8 |
| 20260507152052 | 56 | 174 | 0.0 | 2.6 | 0.00 | 0.01 | 0.01 | 54 | 1004.0 |
| 20260507151548 | 56 | 174 | 0.0 | 0.9 | 0.00 | 0.01 | 0.01 | 50 | 1004.1 |
| 20260507151045 | 57 | 174 | 0.9 | 2.6 | 0.00 | 0.01 | 0.01 | 47 | 1004.1 |
| 20260507150537 | 58 | 174 | 2.6 | 3.5 | 0.00 | 0.01 | 0.01 | 45 | 1003.8 |
| 20260507150033 | 59 | 174 | 0.0 | 1.7 | 0.00 | 0.01 | 0.01 | 43 | 1003.8 |
| 20260507145528 | 59 | 174 | 0.0 | 0.9 | 0.00 | 0.01 | 0.01 | 45 | 1003.6 |
| 20260507145027 | 57 | 174 | 2.6 | 2.6 | 0.00 | 0.01 | 0.01 | 47 | 1003.9 |
| 20260507144523 | 58 | 174 | 2.6 | 5.2 | 0.00 | 0.01 | 0.01 | 45 | 1004.0 |
| 20260507144020 | 58 | 174 | 0.0 | 6.1 | 0.00 | 0.01 | 0.01 | 51 | 1004.1 |
| 20260507143517 | 56 | 174 | 0.9 | 1.7 | 0.00 | 0.01 | 0.01 | 51 | 1003.9 |
| 20260507143015 | 56 | 174 | 0.0 | 0.0 | 0.00 | 0.01 | 0.01 | 45 | 1004.1 |
| 20260507142510 | 57 | 174 | 0.9 | 2.6 | 0.00 | 0.01 | 0.01 | 48 | 1004.0 |
| 20260507142007 | 57 | 174 | 0.0 | 0.9 | 0.00 | 0.01 | 0.01 | 51 | 1003.9 |
| 20260507141503 | 56 | 174 | 2.6 | 2.6 | 0.00 | 0.01 | 0.01 | 47 | 1004.0 |
| 20260507141000 | 56 | 174 | 0.0 | 1.7 | 0.00 | 0.01 | 0.01 | 54 | 1004.3 |
| 20260507140456 | 55 | 174 | 0.0 | 0.0 | 0.00 | 0.01 | 0.01 | 54 | 1004.4 |
| 20260507135954 | 55 | 174 | 0.0 | 1.7 | 0.00 | 0.01 | 0.01 | 52 | 1004.5 |
| 20260507135451 | 55 | 174 | 0.0 | 0.9 | 0.00 | 0.01 | 0.01 | 57 | 1004.5 |
| 20260507134948 | 54 | 174 | 0.0 | 1.7 | 0.00 | 0.01 | 0.01 | 57 | 1004.4 |
| 20260507134444 | 53 | 174 | 0.0 | 1.7 | 0.00 | 0.01 | 0.01 | 61 | 1004.3 |
| 20260507133940 | 53 | 174 | 0.0 | 1.7 | 0.00 | 0.01 | 0.01 | 60 | 1004.5 |
| 20260507133437 | 53 | 174 | 0.0 | 0.9 | 0.00 | 0.01 | 0.01 | 60 | 1004.4 |